Voltar ao catálogo

ARSAT 1

AtivoComunicaçõesGEO
NORAD 40272·PAYLOAD·🇦🇷 Argentina

Lançado Oct 16, 2014 de Guiana Space Centre

Loading…

TLE

AtualizadoSource: Space-Track

Época: Sep 14, 2026, 14:56 UTC

1 40272U 14062B   26257.62280262 -.00000268  00000-0  00000-0 0  9995
2 40272   0.0246  65.9391 0001655  91.5029 348.5675  1.00271976 43520

Acompanhe ARSAT 1 em tempo real com AllMySat

Download on the App Store